Tracking 23099 objects as of 14-May-2021
HD Live streaming from Space Station
objects crossing your sky now

OSCAR 5

Track OSCAR 5 now!
10-day predictions
OSCAR 5 is classified as:


NORAD ID: 4321
Int'l Code: 1970-008B
Perigee: 1,441.2 km
Apogee: 1,484.0 km
Inclination: 101.5 °
Period: 115.0 minutes
Semi major axis: 7833 km
RCS: 0.3365 m2 (medium)
Launch date: January 23, 1970
Source: Australia (AUS)
Launch site: AIR FORCE WESTERN TEST RANGE (AFWTR)

Uplink (MHz):
Downlink (MHz): 29.450
Beacon (MHz): 144.050
Mode: CW
Call sign:
Status: Inactive

aabbcc
Your satellite tracking list
Your tracking list is empty




NASA's NSSDC Master Catalog

Two Line Element Set (TLE):
1 04321U 70008B   21133.44848015 -.00000056  00000-0 -81009-4 0  9994
2 04321 101.5408 191.5315 0027276 294.8352  75.4936 12.52161360344555
Source of the keplerian elements: AFSPC